columna-publicidad-2015-190x7801
columna-publicidad-2015-190x780
atletismo
23/01/2012

Siempre primero

A mediados de diciembre obtuvo el sexto puesto entre los 2.300 participantes del Maratón de Castellón en España donde corrió los 42 kilómetros en 2h18m09s que lo situaron a tan sólo nueve segundos de la marca B clasificatoria para los Juegos Olímpicos que anhela lograr en abril próximo en Rotterdam. Como forma de calentar motores, retornó a las pistas argentinas y lo hizo con un triunfo porque el atleta santafesino Nicolás Ternavasio subió a la cima del podio de la segunda edición de los 10K CRAS donde su esposa Verónica Ramírez se colgó la medalla de bronce en la clasificación general femenina.

Nacido hace veintiocho años en el pueblo de San Vicente, Nicolás Ternavasio conquistó la Copa Challenger al sumar dos victorias consecutivas en esta prueba organizada por el Club Rafaelino de Atletismo y Servicios gracias a correr los diez kilómetros en 31 minutos y 5 segundos que lo convirtieron en el más veloz de los 116 competidores que cruzaron la meta. Con una velocidad promedio de tres minutos y seis segundos por kilómetro a pesar del cansancio que arrastra de la temporada 2011 en la que compitió en tres maratones ya que además de los 42K españoles logró un cuerto puesto en el Iberoamericano de Caracas y ganó en Rosario, Nico Ternavasio superó por un minuto y once segundos a su escolta, Héctor Gómez de la localidad de Lehmann, mientras que el entrerriano Walter Jacob arribó tercero con 34m33s. seguido del cordobés Eduardo González y el local José Ledesma, cuarto y quinto con 35m45s y 36m33s respectivamente.

Entre las mujeres se impuso Isabel Ponce al correr los diez kilómetros en 38 minutos y 27 segundos que equivalen a un ritmo de tres minutos y cincuenta para cada mil metros. En segundo lugar se situó Fabiana Gaitán con 39 minutos exactos, ni un segundo más ni uno menos, por delante de Verónica Ramírez, esposa de Ternavasio, cuyos 44 minutos y 9 segundos le valieron la tercera ubicación entre las veinte participantes de esta segunda edición.

Corredor Edad Sexo Ciudad Tiempo Prom.
1 TERNAVASIO, NICOLAS 28 M SAN VICENTE 31:05:41 3:06:34
2 GOMEZ, HECTOR PASCUAL 25 M LEHMANN 32:16:32 3:13:39
3 JACOB, WALTER 24 M CRESPO (E.R.) 34:33:39 3:27:22
4 GONZALEZ, EDUARDO FELICIANO 26 M SUCO (CBA) 35:45:00 3:34:30
5 LEDESMA, JOSE 41 M RAFAELA 36:33:00 3:39:18
6 MANSILLA, CARLOS 29 M AÑATUYA (S.E.) 37:11:26 3:43:09
7 ORUNDEZ AYALA, JUAN CARLOS 28 M RAFAELA 37:46:01 3:46:36
8 PEREYRA, JUAN MARCELO 37 M PARANA (E.R.) 38:25:00 3:50:30
9 PONCE, ISABEL PATRICIA 37 F ESPERANZA 38:27:00 3:50:42
10 KURIGER, FERNANDO 30 M RAFAELA 38:30:13 3:51:01
11 D´ESPOSITO, MIGUEL OMAR 44 M ESPERANZA 38:47:45 3:52:47
12 GAITAN. FABIANA 41 F SANTA FE 39:00:16 3:54:02
13 BETTIG, GABRIEL 27 M FRANCK 39:04:00 3:54:24
14 RODRIGUEZ, OSVALDO 37 M RAFAELA 39:30:00 3:57:00
15 SIMI, LUIS EDUARDO 40 M BARRANCAS 39:53:09 3:59:19
16 NIEVAS, RICARDO 55 M LA LUCILA 41:15:09 4:07:31
17 CORDOBA, MILLAN 51 M SANTA FE 41:50:00 4:11:00
18 AGUILERA, BRUNO 16 M PORTEÑA (CBA) 42:00:00 4:12:00
19 AGUILERA, TOMAS GUILLERMO 14 M PORTEÑA (CBA) 42:02:08 4:12:13
20 MAGALLANES, ARIEL 20 M RAFAELA 42:04:00 4:12:24
21 REHLING, RUBEN IRMO 45 M ESPERANZA 42:21:26 4:14:09
22 REINHARDT, MARIANO 36 M RAFAELA 42:44:07 4:16:25
23 SICURELLA, JORGE 37 M RAFAELA 42:48:07 4:16:49
24 SOSA, OSCAR DARIO 36 M BANDERA (S.E) 43:14:00 4:19:24
25 STENDERUP, DAVID 39 M RAFAELA 43:27:23 4:20:44
26 CARAVARIO, FRANCO 19 M RAFAELA 43:37:23 4:21:44
27 CULASSO, EDUARDO 50 M RAFAELA 43:46:45 4:22:41
28 BONETTO, CESAR 39 M RAFAELA 44:07:26 4:24:45
29 RAMIREZ, VERONICA JUDIT 26 F SAN VICENTE 44:09:13 4:24:55
30 GUERRERO, LUIS ALBERTO 40 M SANTA FE 44:44:00 4:28:24
31 TOLEDO, GONZALO 21 M RAFAELA 44:45:00 4:28:30
32 CASSINA, ANDRES 34 M RAFAELA 44:57:23 4:29:44
33 PAROLA, SILVIO 52 M RAFAELA 45:02:20 4:30:14
34 PERREN, HECTOR A. 53 M S.J. NORTE 45:05:54 4:30:35
35 TERNAVASIO, FABRICIO ANDRES 25 M SAN VICENTE 45:30:00 4:33:00
36 CARPIO, WALTER H. 33 M RAFAELA 45:45:45 4:34:35
37 GUERRERO, GASTON 36 M RAFAELA 45:46:45 4:34:41
38 GOMEZ, HUGO OMAR CD M SAN CRISTOBAL 45:51:32 4:35:09
39 PAREDES, WALTER 23 M SAN CRISTOBAL 45:57:32 4:35:45
40 DRUBICH, DIEGO 42 M RAFAELA 46:03:00 4:36:18
41 BISIO, FERNANDO DAMIAN 34 M COLASTINE NORTE 46:45:00 4:40:30
42 MARTINEZ, RAFAEL 36 M SANTA FE 46:58:09 4:41:49
43 RAMINELLI, DANIEL 33 M RAFAELA 47:06:32 4:42:39
44 SANMARTINO, GUSTAVO H. 38 M RAFAELA 47:09:00 4:42:54
45 CATTALIN, SANTIAGO FEDERICO 57 M SANTO TOME 47:10:00 4:43:00
46 BORLLE, MARIANA 42 F RAFAELA 47:23:00 4:44:18
47 BERMUDEZ, RODOLFO 41 M SANTA FE 47:30:06 4:45:01
48 DONNET, JOSE 47 M RAFAELA 47:41:09 4:46:07
49 LLULL, DIEGO 30 M RAFAELA 47:42:00 4:46:12
50 ORTIZ, PEDRO 47 M RAFAELA 47:56:00 4:47:36
51 VEGA, JAVIER 40 M SANTA FE 48:10:00 4:49:00
52 BOLZICO, LUCIANO 33 M SUNCHALES 48:12:00 4:49:12
53 PERETTI, DIEGO 42 M RAFAELA 48:18:36 4:49:52
54 TOLEDO, LUIS 50 M RAFAELA 48:20:08 4:50:01
55 ALVARENGA, PABLO 19 M PARANA (E.R.) 48:34:36 4:51:28
56 WEINER, JAVIER 35 M RAFAELA 48:39:32 4:51:57
57 BARTOMIOLI, MARTIN 37 M RAFAELA 48:48:00 4:52:48
58 CAZZANIGA, CESAR LUIS 32 M RAFAELA 48:59:13 4:53:55
59 VALENTINUZZI, IVANA 43 F SANTO TOME 49:13:13 4:55:19
60 CHICCO, RICARDO 47 M RAFAELA 49:18:00 4:55:48
61 GAMARRA, SERGIO RAUL 44 M SAN JORGE 49:21:36 4:56:10
62 BRUNO, JOSE 52 M RAFAELA 49:27:32 4:56:45
63 YOSSEN, DANIEL 43 M FRANCK 49:33:00 4:57:18
64 DIAZ, CLAUDIO JULIO 49 M MORON (B.AIRES) 49:37:00 4:57:42
65 BENITEZ, ANGEL EUGENIO 57 M SANTA FE 49:47:00 4:58:42
66 RODRIGUEZ MESON, SILVINA 38 F RAMONA 49:52:00 4:59:12
67 VILLARREAL, DAMIAN 25 M RAFAELA 49:55:16 4:59:32
68 SANTI, MIRKO SEBASTIAN 33 M RAFAELA 49:56:01 4:59:36
69 TORANZO, FERNANDO 17 M PORTEÑA (CBA) 49:56:39 4:59:40
70 MARZIONI, FERNANDO 45 M RAFAELA 51:09:09 5:06:55
71 GARCIA, RODRIGO 30 M SUSANA 52:21:00 5:14:06
72 POSSETTO, FERNANDO 45 M RAFAELA 52:22:00 5:14:12
73 GARCIA, MARIA JOSE 28 F SANTA FE 52:34:07 5:15:25
74 CARABALLO, MONICA ALEJANDRA 36 F PARANA (E.R.) 52:37:45 5:15:47
75 MANFREDI, MARIANO ANDRES 38 M RAFAELA 52:53:00 5:17:18
76 CARPIO, AUGUSTO CARLOS 62 M PARANA (E.R.) 52:56:45 5:17:41
77 COSTMAGNA, GABRIEL HERNAN 38 M RAFAELA 53:22:00 5:20:12
78 SAUCEDO, ANTONIO 50 M RAFAELA 53:22:29 5:20:15
79 DONNET, ROCIO 19 F RAFAELA 53:47:23 5:22:44
80 GHIBERTO, DARIO 50 M RAFAELA 53:48:00 5:22:48
81 DEMARTIN, ROCIO 19 F RAFAELA 54:02:01 5:24:12
82 D’ELIA, ARIEL 35 M SANTA FE 54:05:48 5:24:35
83 CARDOZO, ELBA SUSANA 37 F EST. CLUCELLAS 54:28:54 5:26:53
84 SANCHIS, ANIBAL 36 M RAFAELA 54:32:51 5:27:17
85 ARGAÑARAZ, OSCAR V. 56 M RAFAELA 55:00:50 5:30:05
86 BERTOLINI, JULIAN LEONEL 19 M RAFAELA 55:08:50 5:30:53
87 GUNTERN, GUILLERMO 45 M RAFAELA 55:22:00 5:32:12
88 PEON, GUSTAVO 43 M RAFAELA 55:37:00 5:33:42
89 VICENTIN, MONICA A. 43 F SANTA FE 55:42:00 5:34:12
90 CAPELLINO, JOSE L. 43 M SUNCHALES 55:46:46 5:34:41
91 MATEO, VICTOR ENRIQUE 59 M SAN FRANCISCO (CBA) 55:53:03 5:35:18
92 ROSSO, CARLOS A. 61 M RAFAELA 55:57:21 5:35:44
93 VELIZ, JUAN JOSE 30 M RAFAELA 56:01:48 5:36:11
94 BARONETTI, GERMAN 32 M RAFAELA 56:03:47 5:36:23
95 SOVRANO, MARIA GUADALUPE 46 F SANTA FE 56:04:57 5:36:30
96 BARAVALLE, JOSE M. 62 M SANTA FE 56:52:05 5:41:12
97 VENCE, LUIS 43 M RAFAELA 56:58:00 5:41:48
98 ARAGON, LUISA 35 F AÑATUYA (S.E.) 57:25:00 5:44:30
99 KLOSTER, SOFIA 15 F RAFAELA 57:45:58 5:46:36
100 BLANZARI, REINALDO 57 M SAN FRANCISCO (CBA) 57:49:14 5:46:55
101 PIUZZI, ROCIO SOLEDAD 18 F RAFAELA 57:54:39 5:47:28
102 FOGOLIN, AGUSTIN CARLOS 19 M RAFAELA 57:55:00 5:47:30
103 MORILLA, JUAN 62 M SANTA FE 58:08:43 5:48:52
104 AVILA, LUCIO 16 M RAFAELA 58:17:32 5:49:45
105 RODRIGUEZ, FEDERICO 15 M RAFAELA 58:18:00 5:49:48
106 GINEZ, JAVIER 38 M RAFAELA 58:28:00 5:50:48
107 FAVARO, MAURICIO 39 M RAFAELA 58:55:12 5:53:31
108 BISIO, ANDRES ALFREDO 26 M SANTA FE 58:57:00 5:53:42
109 BECCACECE, DIEGO 32 M RAFAELA 61:26:29 6:08:39
110 GARETTO, HORACIO 51 M RAFAELA 61:44:00 6:10:24
111 TRONCOSO, YANINA 35 F RAFAELA 62:11:25 6:13:08
112 DAVICINO, RENE 57 M RAFAELA 62:17:00 6:13:42
113 BARONETTI, MONICA 50 F RAFAELA 62:37:00 6:15:42
114 DOCE, GRACIELA 60 F COLASTINE NORTE 64:16:00 6:25:36
115 PEREYRA, GABRIELA 17 F PARANA (E.R.) 66:25:00 6:38:30
116 VELIZ, FRANCISCO 78 M RAFAELA 74:24:00 7:26:24

Tags: , , , , , ,

  • opinión de los lectores


    EL DEPORNAUTA no publicará comentarios inapropiados ni acusaciones infundadas. Tampoco tendrán cabida las opiniones que incluyan insultos o groseras descalificaciones. Los comentarios publicados son de exclusiva responsabilidad de sus autores que podrán ser pasibles de las sanciones legales que correspondan por sus dichos

    Deja tu comentario!

    mas noticias

    No habrá Dream Team de maratón

    Kenia no contará con cuatro grandes corredores en los 42K del campeonato mundial de Londres.

    kipchoge kipsang 1

    Usain Bolt corrió en 9s95

    El múltiple campeón olímpico y mundial jamaiquino triunfó en Mónaco bajando la barrera de los 10 segundos.

    bolt

    Anotate en Monte Corre Aventura

    Participá en 7, 14 y 21 kilómetros en forma individual o en parejas.

    monte corre aventura 1

    Así se corre con frío

    Recomendaciones para no interrumpir el entrenamiento de running durante el invierno.

    running frio 1

    Feliz Día del Amigo para todos los depornautas

    Saludamos a nuestros lectores y oyentes que son una legión de campeones mundiales de la amistad.

    amigos-running-1

    Una argentina subcampeona mundial

    Ganadora del oro paralímpico en Río 2016, Yanina Martínez obtuvo la medalla de plata en los 200 metros de Londres 2017.

    yanina martinez 1

    El Nativa Tour 5K copará Misiones

    Habrá running solidario en Posadas con inscripción gratuita y una remera a cambio de donar un útil escolar.

    nativa tour posadas 1

    Mujer pedaleó 48 Km. en 1 hora

    Récord mundial femenino de ciclismo.

    nielsen ciclismo 1

    Nairo Quintana nunca se da por vencido

    El ciclista colombiano finalizó segundo en la 13º etapa del Tour de France descontando la ventaja con el líder Fabio Aru.

    quintana 2

    Nuevo líder en el Tour de France

    Le arrebataron el maillot amarillo al tricampeón Chris Froome.

    aru-festejo-1

    Mujer epiléptica pedaleó 305 Km. sin parar

    Rodó sin detenerse batiendo dos récords mundiales.

    ford katie 1

    La bicicleta no causa disfunción sexual

    Un estudio médico comprobó que el ciclismo no produce impotencia ni trastornos urinarios.

    ciclismo generico 3

    Coraje criollo

    El ciclista olímpico argentino Eduardo Sepúlveda completó la 9º etapa del Tour de France tras caerse de la bicicleta a 70 km/h.

    sepulveda lesion

    Ganó por un cuarto de rueda

    La sexta joranda del Tour de France se definió sobre la línea de llegada.

    kittel 2

    25 Km. a pura brazada

    Guillermo Bértola arribó 20º en el maratón acuático más extenso del mundial de aguas abiertas.

    bertola

    Arañaron el Top-10

    Gran actuación argentina en la posta mixta del mundial de natación en aguas abiertas.

    natacion posta argentina 1

    Nadando desde Bariloche hasta Budapest

    Una joven rionegrina de 18 años representó a la Argentina en el mundial de aguas abiertas en Budapest.

    puca mayte aguas abiertas

    Entre los mejores del mundo

    Guillermo Bértola y Joaquín Moreno tuvieron un buen debut en mundial de maratón acuático.

    bertola primer plano 1

    Biagioli arribó 21º en el mundial de maratón acuático

    La representante olímpica cordobesa nadó 10K en Hungría donde la rosarina Julia Arino finalizó 34º.

    biagioli cecilia primer plano 1

    Nadó 177 metros sin respirar

    Récord mundial de natación en apnea.

    coste apnea

    Embajadores de la brazada

    Siete nadadores argentinos representarán al país en el mundial de pileta larga Budapest 2017.

    naidich subacuatico 1

    Sanción por doping a triatleta IronMan amateur

    Suspendieron a un hombre de hierro de 45 años por negarse a un control sanguíneo sorpresivo previo al mundial de Hawaii.

    triatlon ironman sombra 1

    Nº1 del triatlón mundial

    Mario Mola lidera el ranking internacional del deporte de las tres disciplinas tras imponerse en el Sprint de Hamburgo.

    mola 1

    Derrotaron a todos, también al frío

    La pasión deportiva venció a la sensación térmica bajo cero en el Duatlón de Pinzón.

    duatlon pergamino largada 1

    La música ayuda a correr más rápido

    Diferentes estudios comprobaron que el rock & pop incrementaría la velocidad de la zancada.

    Cropped shot of two young athletes running while listening to music

    La máxima expresión del duatlón

    La 21º edición del Hombre de Piedra tendrá dos distancias con bicicleta de ruta o MTB.

    hombre-de-piedra

    La bicicleta no causa disfunción sexual

    Un estudio médico comprobó que el ciclismo no produce impotencia ni trastornos urinarios.

    ciclismo generico 3

    Más y mejor triatlón en Buenos Aires

    La federación bonaerense organizará un campeonato con beneficios adicionales para todos sus afiliados.

    triatlon monte 1

    Anotate en Monte Corre Aventura

    Participá en 7, 14 y 21 kilómetros en forma individual o en parejas.

    monte corre aventura 1

    Feliz Día del Amigo para todos los depornautas

    Saludamos a nuestros lectores y oyentes que son una legión de campeones mundiales de la amistad.

    amigos-running-1

    Cross Aventura made in Entre Ríos

    Más de quinientos corredores cruzaron la meta en la prueba de running todo terreno de Valle María. RESULTADOS.

    running-valle-maria-1

    En la cima del Champaquí

    El running lo ayudó para ascender a la cumbre más alta de Córdoba.

    pablo champaqui 1

    La gran aventura de las carreras de expedición

    Tucumán fue escenario de la XK Race y Conquista Tu Cumbre, dos de las competencias más exigentes del país.

    xk race

    Corré en Entre Ríos, llevate la remera

    El Cross Aventura Valle María tendrá 7, 13 y 25 kilómetros junto con una prueba para menores e infantiles.

    remera valle 1

    Entrená para correr en montaña

    Ejercicios para competir en trail running mejorando los tiempos sin lesionarse.

    montana maraton 1

    Bronce para Federico Bruno en España

    El atleta olímpico argentino estuvo a 14 centésimas de batir el récord argentino de 1.500 metros en pista.

    bruno federico pista 2

    Mal debut

    Argentina perdió ante Ecuador en el inicio de las eliminatorias del campeonato mundial de fútbol Rusia 2018.

    di maria

    Otra goleada, otra Copa

    River Plate conquistó el trofeo Surua Bank en Japón al vencer 3 a 0 al equipo nipón Gamba Osaka.

    river copa libertadores 1

    River campeón de la Copa Libertadores

    Venció a Tigres de México sumando su tercer título en el torneo más importante del fútbol sudamericano.

    river libertadores festejo

    Chile campeón

    La selección trasandina de fútbol conquistó la Copa América al vencer a la Argentina en la definición por penales.

    chile 1

    El show del fútbol

    Argentina derrotó a Paraguay por 6 a 1 clasificándose a la final de la Copa América que definirá ante Chile. VIDEO DE GOLES.

    rojo

    El mejor equipo de la historia

    Con Messi y Mascherano, Barcelona de España sumó su segunda triple corona al conquistar la Champions League venciendo 3 a 1 a la Juventus de Italia.

    barcelona messi 1

    Federer ganó su 19º título de Grand Slam

    A sus 36 años, el tenista suizo conquistó Wimbledon por octava vez.

    federer wimbledon

    El doping no se perdona

    Roland Garros le cerró las puertas a María Sharapova aunque la tenista rusa ya cumplió la suspensión por consumo de productos ilícitos.

    sharapova 1

    Agassi entrenará a Djokovic

    El actual Nº2 del ranking mundial contrató como técnico a uno de los pocos tenistas que ganó todos los torneos de Grand Slam.

    agassi djokovic

    Phelps venció a Del Potro

    El mejor nadador de la historia se impuso en un duelo ante el tenista argentino.

    phelps del potro 1

    Federer campeón del Australian Open

    A sus 35 años, tras seis meses inactivo por una lesión, el tenista suizo ganó su 18º título de Grand Slam.

    federer tenis drive 2

    Un argentino campeón de un Grand Slam

    El tenista paralímpico Gustavo Fernández ganó el Abierto de Australia en silla de ruedas.

    fernandez tenis paralimpico 1

    Finalista

    Roger Federer definirá el Abierto de Australia ante el vencedor del duelo entre Rafael Nadal y Grigor Dimitrov.

    federer tenis drive 1

    Resultados Half Triathlon Concordia

    Clasificación oficial de la prueba combinada entrerriana de larga distancia.

    concordia 2

    Resultados Maratón La Pampa

    Clasificación oficial de los 42, 21 y 10 Km. de Santa Rosa.

    maraton la pampa 2017 2

    De Mar del Plata a la cima del podio

    Victorias de Christian Carletto y Silvana Calcagno en el Triatlón de Monte. RESULTADOS.

    podio triatlon monte 1

    Resultados Triatlón XTerra Fest

    Clasificación general oficial de la segunda edición sanjuanina.

    xterra running 1 2017

    Resultados Trail Running

    Clasificación oficial de los 10K y 21K sanjuaninos clasificatorios para el mundial de EE.UU.

    xterra running 4

    Clasificación Maratón Acuático San Juan

    Resultados oficiales de la prueba de natación en aguas abiertas del XTerra Fest.

    podio aguas abiertas

    Resultados Triatlón Santa Ana

    Clasificación oficial de la última fecha del campeonato entrerriano.

    caino podio

    Le falta una pierna, le sobra velocidad

    Un ciclista amputado de 45 años estableció un nuevo récord mundial.

    colin2a

    Argentina copó el podio en Brasil

    La selección nacional de natación paralímpica conquistó veintiún medallas en el torneo Open Caixa de San Pablo.

    natacion paralimpica argentina 1

    Triatlón al más alto nivel

    La selección argentina compitió en la ITU World Triathlon Series de Nueva Zelanda. RESULTADOS.

    taccone triatlon

    Karina Córdoba arribó 3º en 21K de España

    La atleta porteña se colgó el bronce en el Medio Maratón de Elche registrando la segunda mejor marca argentina del año.

    cordoba running maraton 3

    La corredora más veloz

    Rosa Godoy se coronó campeona argentina clasificándose a los Panamericanos de Canadá y el Sudamericano de Perú.

    rosa godoy atletismo running 2

    Triple oro para Miguelena

    El nadador marplatense conquistó los títulos nacionales de 50, 100 y 200 metros pecho del campeonato argentino donde logró la mejor marca técnica.

    miguelena pecho 1

    En la cima del podio

    El ciclista santafesino Demis Aleman conquistó la Vuelta a la Laguna de Chascomús donde superó a las principales figuras a nivel nacional.

    aleman demis ciclismo 1

    Así se corre con frío

    Recomendaciones para no interrumpir el entrenamiento de running durante el invierno.

    running frio 1

    Feliz Día del Amigo para todos los depornautas

    Saludamos a nuestros lectores y oyentes que son una legión de campeones mundiales de la amistad.

    amigos-running-1

    El Nativa Tour 5K copará Misiones

    Habrá running solidario en Posadas con inscripción gratuita y una remera a cambio de donar un útil escolar.

    nativa tour posadas 1

    La máxima expresión del duatlón

    La 21º edición del Hombre de Piedra tendrá dos distancias con bicicleta de ruta o MTB.

    hombre-de-piedra

    Argentinos, trasplantados y campeones

    La delegación nacional ganó 16 medallas de oro en los Juegos Mundiales para Deportistas Trasplantados

    trasplantados

    En la cima del Champaquí

    El running lo ayudó para ascender a la cumbre más alta de Córdoba.

    pablo champaqui 1

    Gran duatlón, gran pilcha

    Bonificación especial para la carrera combinada de Pergamino.

    remera duatlon pergamino

    Nadó 177 metros sin respirar

    Récord mundial de natación en apnea.

    coste apnea

    Nairo Quintana nunca se da por vencido

    El ciclista colombiano finalizó segundo en la 13º etapa del Tour de France descontando la ventaja con el líder Fabio Aru.

    quintana 2

    Atropellaron a un Nº1 paralímpico

    El ciclista amputado Juanjo Méndez fue embestido por un auto mientras entrenaba en una ruta.

    mendez juan paralimpico 1

    Nairo Quintana será líder en el Tour de France

    El ciclista colombiano fue designado jefe de filas para la ronda gala.

    quintana nairo contrarreloj

    Colombia brilló en el Giro de Italia

    Nairo Quintana se coronó subcampeón de la carrera azurra donde Fernando Gaviria lideró la clasificación por puntos.

    quintana nairo contrarreloj 2

    Ganó un ultramaratón con sandalias y pollera

    Una joven conquistó una prueba de montaña con vestimenta típica de la comunidad indígena tarahumara.

    corredora sandalias 1

    Orgullo del ciclismo de América del Sur

    El colombiano Fernando Gaviria volvió a triunfar en el Giro de Italia bajo la guía de su lanzador argentino Maxi Richeze.

    gaviria 1

    Feliz Día del Amigo para todos los depornautas

    Saludamos a nuestros lectores y oyentes que son una legión de campeones mundiales de la amistad.

    amigos-running-1

    Habrá más triatlón en Mar del Plata

    Fundador de ISSports, Hernán Ibáñez adelantó novedades de las carreras programadas para esta temporada.

    triatlon mar del plata 2

    “Formamos nuevos talentos”

    Titular de la Asociación Mendocina de Triatlón, Luciano Cicchitti trazó un balance de esta década de labor institucional.

    cicchitti junior llegada

    “La natación te vuelve un atleta polifuncional”

    Jefe técnico de la selección argentina para los Juegos Olímpicos, Gustavo Roldán habó sobre entrenamiento en pileta y aguas abiertas.

    nadadoras-argentinas

    Día del Periodista Deportivo

    Agradecemos a lo lectores y anunciantes que nos posicionaron como en el diario digital Nº1 de habla hispana sobre nadar; correr y pedalear.

    horowitz gaby radio shimano mayo 2

    Alimentación antes, durante y después del maratón

    Pautas nutricionales para lograr el máximo rendimiento físico con una mejor recuperación muscular.

    hidratacion maraton 2

    Software para Running Team

    Creador de Webtrainer, Hernán Carbone habló sobre su sistema específico para grupos de entrenamiento.

    villteam running 1